Location: Marsån
(66.4167°N, 22.2833°E)
Time: 08:00:11
(UTC+00:00)

Cosmos 773 Rocket - Pass Details

Date: 24 February 2024
Orbit: 743 x 775 km, 74.1° (Epoch: 20 April)

Event Time Altitude Azimuth Distance (km) Brightness Sun altitude
Rises 18:07:04 0° 319° (NW) 3,257 8.2 -16.9°
Reaches altitude 10° 18:09:28 10° 317° (NW) 2,331 7.4 -17.1°
Maximum altitude 18:14:43 66° 236° (WSW) 850 4.3 -17.6°
Enters shadow 18:18:42 18° 158° (SSE) 1,857 5.6 -18.0°
